Terminal Aerodrome Forecast
Issued by NWS

Home | Current Version | Previous Version | Text Only | Print | Product List | Glossary On
Versions: 1 2 3 4 5 6 7 8 9 10 11 12 13 14 15
000
FTUS41 KCAR 030521
TAFBHB
TAF
KBHB 030521Z 0306/0406 31013G23KT P6SM SKC
     FM031000 30012KT P6SM SKC
     FM032200 18008KT P6SM OVC050
     FM040300 19006KT 5SM -SN OVC030
      AMD LTD TO CLD VIS AND WIND=

USA.gov is the U.S. government's official web portal to all federal, state and local government web resources and services.